This is the latest recevied weather packets stored in our database for station/object KF7SOJ. If no packets are shown the sender has not sent any weather packets the latest 10 day(s).
| Time | Temp. | Humidity | Pressure | Rain* | Wind** | Luminosity | Snow |
|---|---|---|---|---|---|---|---|
| 1777861009 | 20° C | 32% | 923.7 hPa | 0 mm | - | 10 W/m² | - |
| 1777860705 | 20° C | 32% | 923.3 hPa | 0 mm | - | 13 W/m² | - |
| 1777860402 | 20° C | 31% | 923.5 hPa | 0 mm | - | 18 W/m² | - |
| 1777860098 | 20.56° C | 31% | 923.4 hPa | 0 mm | - | 22 W/m² | - |
| 1777859795 | 20.56° C | 31% | 923.4 hPa | 0 mm | - | 26 W/m² | - |
| 1777859491 | 21.11° C | 30% | 923.4 hPa | 0 mm | - | 31 W/m² | - |
| 1777859187 | 21.67° C | 29% | 923.4 hPa | 0 mm | - | 36 W/m² | - |
| 1777858884 | 22.22° C | 27% | 923.4 hPa | 0 mm | - | 47 W/m² | - |
| 1777858582 | 22.22° C | 26% | 923.4 hPa | 0 mm | - | 55 W/m² | - |
| 1777858278 | 23.33° C | 24% | 923.4 hPa | 0 mm | - | 86 W/m² | - |
| 1777857976 | 23.33° C | 24% | 923.3 hPa | 0 mm | - | 86 W/m² | - |
| 1777857674 | 22.78° C | 23% | 923.4 hPa | 0 mm | - | 93 W/m² | - |
| 1777857370 | 22.78° C | 24% | 923.4 hPa | 0 mm | - | 94 W/m² | - |
| 1777857066 | 22.78° C | 24% | 923.4 hPa | 0 mm | - | 99 W/m² | - |
| 1777856762 | 23.33° C | 23% | 923.5 hPa | 0 mm | - | 88 W/m² | - |
| 1777856458 | 23.33° C | 23% | 923.6 hPa | 0 mm | - | 91 W/m² | - |
| 1777856155 | 23.33° C | 21% | 923.6 hPa | 0 mm | - | 96 W/m² | - |
| 1777855853 | 23.89° C | 21% | 923.5 hPa | 0 mm | - | 100 W/m² | - |
| 1777855550 | 23.89° C | 21% | 923.5 hPa | 0 mm | - | 118 W/m² | - |
| 1777855247 | 24.44° C | 20% | 923.7 hPa | 0 mm | - | 131 W/m² | - |
| 1777854943 | 25° C | 20% | 923.6 hPa | 0 mm | - | 168 W/m² | - |
| 1777854640 | 25° C | 20% | 923.7 hPa | 0 mm | - | 197 W/m² | - |
| 1777854337 | 25° C | 20% | 923.5 hPa | 0 mm | - | 227 W/m² | - |
| 1777854035 | 25° C | 19% | 923.7 hPa | 0 mm | - | 247 W/m² | - |
| 1777853732 | 25.56° C | 18% | 923.8 hPa | 0 mm | - | 289 W/m² | - |
* Rain latest hour (hover to see other rain measurements)
** Current wind speed in m/s (hover to see current wind gust speed)